Temp
-4 -4 -4 -4 -4 -4 -4 -4 -3 -3 -4 -4 -5 -5 -4 -5 -5 -4 -4 -5 -5 -5 -4 -4 -5 -5 -5 -6 -6 -6 -6 -6 -5 -5 -5 -5 -4 -3 -4 -4 -4 -4 -4 -4 -4 -4 -4 -4 -4 -5 -5 -5 -5 -5 -5 -5 -5 -5 -5 -5 -5 -5 -5
-4 -4 -4 -4 -4 -4 -4 -4 -3 -4 -4 -5 -5 -5 -5 -5 -5 -4 -4 -4 -4 -4 -4 -4 -4 -5 -5 -6 -6 -5 -5 -5 -5 -5 -5 -5 -4 -4 -4 -4 -4 -4 -4 -4 -4 -4 -5 -5 -5 -5 -5 -5 -5 -5 -5 -5 -5 -5 -5 -5 -5 -5 -5
-5 -5 -5 -4 -4 -4 -4 -4 -4 -4 -4 -5 -5 -5 -5 -5 -4 -3 -3 -4 -4 -4 -3 -3 -4 -5 -5 -6 -6 -5 -5 -5 -5 -5 -5 -5 -4 -4 -4 -4 -4 -4 -4 -4 -4 -5 -5 -5 -5 -5 -5 -5 -6 -5 -5 -5 -5 -5 -5 -5 -5 -5 -5
-5 -5 -5 -5 -4 -4 -4 -4 -5 -5 -4 -4 -4 -4 -4 -4 -4 -3 -3 -3 -3 -3 -3 -4 -4 -5 -5 -5 -6 -6 -6 -5 -5 -5 -5 -5 -5 -4 -4 -4 -4 -4 -4 -4 -4 -5 -5 -5 -5 -5 -5 -5 -5 -5 -5 -5 -5 -5 -5 -5 -5 -5 -5
-5 -5 -5 -4 -4 -4 -4 -4 -4 -4 -4 -4 -5 -5 -5 -5 -5 -4 -4 -3 -2 -2 -3 -4 -4 -5 -5 -5 -6 -6 -6 -6 -6 -6 -6 -5 -5 -5 -4 -4 -4 -4 -4 -4 -4 -5 -5 -5 -5 -5 -5 -5 -5 -5 -5 -6 -6 -6 -6 -6 -6 -6 -5
-5 -5 -5 -4 -4 -4 -4 -4 -4 -4 -4 -4 -4 -4 -4 -5 -5 -4 -4 -3 -2 -3 -3 -4 -4 -5 -5 -6 -6 -6 -6 -6 -6 -6 -6 -6 -6 -5 -5 -5 -5 -5 -5 -5 -4 -5 -5 -6 -6 -5 -5 -5 -5 -5 -6 -6 -6 -6 -6 -6 -6 -6 -6
-5 -5 -5 -5 -5 -5 -5 -5 -5 -5 -5 -4 -4 -4 -4 -4 -4 -4 -4 -3 -2 -3 -4 -4 -5 -5 -6 -6 -6 -6 -6 -6 -6 -6 -6 -6 -6 -6 -5 -5 -5 -5 -5 -5 -5 -5 -6 -6 -6 -6 -6 -6 -6 -6 -6 -6 -6 -6 -6 -6 -6 -6 -6
-6 -6 -6 -6 -6 -6 -6 -6 -5 -6 -6 -5 -5 -4 -4 -5 -4 -4 -4 -3 -1 -3 -4 -4 -5 -6 -6 -6 -6 -6 -6 -6 -6 -6 -6 -6 -6 -6 -6 -6 -5 -6 -6 -6 -6 -6 -6 -6 -6 -6 -6 -6 -6 -6 -6 -6 -6 -7 -7 -7 -6 -6 -6
-6 -6 -6 -6 -6 -6 -6 -6 -5 -5 -5 -5 -5 -5 -5 -5 -4 -4 -4 -2 -1 -3 -4 -4 -5 -5 -6 -6 -6 -6 -6 -6 -6 -6 -6 -6 -6 -6 -6 -6 -6 -5 -5 -6 -6 -6 -6 -6 -6 -6 -6 -6 -6 -6 -6 -6 -7 -7 -7 -7 -6 -6 -6
-5 -5 -5 -6 -6 -6 -5 -5 -4 -4 -5 -5 -5 -5 -5 -4 -4 -5 -4 -3 -3 -3 -4 -4 -5 -5 -6 -6 -6 -6 -6 -6 -6 -6 -6 -6 -6 -6 -6 -6 -6 -6 -5 -6 -6 -6 -6 -7 -7 -7 -7 -7 -7 -6 -6 -7 -7 -7 -7 -7 -7 -6 -6
-5 -5 -5 -6 -6 -6 -5 -4 -4 -4 -5 -5 -5 -5 -5 -4 -4 -4 -4 -3 -4 -4 -4 -4 -4 -5 -6 -6 -6 -6 -6 -6 -6 -6 -6 -6 -6 -6 -6 -6 -6 -6 -6 -6 -6 -6 -6 -7 -7 -7 -7 -7 -7 -7 -7 -7 -7 -7 -7 -7 -7 -7 -6
-5 -5 -6 -7 -7 -6 -6 -6 -5 -5 -5 -5 -5 -5 -4 -4 -4 -4 -3 -4 -4 -4 -4 -4 -4 -5 -6 -6 -6 -6 -6 -6 -6 -6 -6 -6 -6 -6 -6 -6 -6 -6 -6 -6 -6 -6 -7 -7 -7 -7 -7 -7 -7 -7 -7 -7 -7 -7 -7 -7 -6 -6 -6
-5 -6 -6 -7 -7 -7 -7 -7 -6 -6 -5 -6 -5 -5 -5 -5 -4 -4 -3 -4 -4 -4 -5 -5 -5 -5 -6 -6 -6 -6 -6 -6 -6 -6 -6 -6 -6 -6 -6 -6 -6 -6 -6 -6 -6 -6 -7 -7 -7 -7 -7 -6 -7 -7 -7 -7 -7 -7 -6 -6 -6 -6 -6
-5 -6 -6 -6 -7 -7 -7 -7 -7 -6 -6 -6 -6 -6 -6 -5 -5 -4 -5 -5 -5 -5 -6 -6 -6 -6 -6 -6 -6 -6 -6 -6 -6 -6 -6 -6 -6 -6 -6 -6 -6 -6 -6 -6 -6 -7 -7 -7 -7 -7 -6 -6 -7 -7 -7 -7 -7 -7 -7 -6 -6 -6 -6
-6 -6 -7 -7 -7 -7 -7 -8 -8 -7 -7 -6 -6 -7 -7 -6 -5 -5 -5 -5 -5 -5 -6 -6 -6 -6 -6 -6 -6 -6 -6 -6 -6 -6 -6 -6 -6 -6 -7 -7 -6 -6 -7 -7 -7 -7 -7 -7 -7 -7 -7 -7 -7 -7 -7 -7 -7 -7 -7 -7 -7 -6 -6
-8 -7 -8 -9 -8 -8 -8 -8 -8 -8 -7 -7 -7 -7 -7 -7 -6 -6 -6 -5 -5 -5 -6 -6 -6 -6 -6 -6 -6 -6 -6 -7 -6 -6 -6 -6 -6 -6 -7 -7 -6 -6 -7 -7 -7 -7 -7 -7 -7 -7 -7 -7 -7 -7 -7 -7 -7 -7 -7 -7 -7 -7 -7
-9 -8 -9 -9 -9 -9 -8 -7 -8 -8 -8 -7 -7 -7 -7 -7 -7 -7 -6 -5 -5 -5 -6 -5 -5 -6 -6 -6 -7 -7 -7 -7 -7 -6 -6 -7 -7 -6 -6 -7 -7 -6 -6 -7 -7 -7 -7 -7 -7 -7 -7 -7 -7 -7 -7 -7 -7 -7 -7 -7 -7 -7 -7
-9 -9 -9 -9 -10 -9 -7 -6 -7 -8 -8 -8 -8 -8 -8 -8 -8 -7 -6 -6 -6 -6 -5 -5 -5 -6 -7 -7 -7 -7 -7 -7 -7 -7 -6 -6 -7 -7 -6 -6 -7 -7 -7 -7 -7 -7 -7 -7 -7 -7 -7 -7 -7 -7 -7 -7 -7 -7 -7 -7 -7 -7 -7
-9 -10 -10 -9 -10 -8 -5 -5 -8 -8 -8 -8 -8 -8 -8 -8 -8 -8 -7 -7 -6 -6 -5 -5 -6 -6 -7 -7 -7 -7 -7 -7 -7 -7 -7 -7 -7 -7 -7 -7 -7 -7 -7 -7 -7 -7 -7 -7 -7 -7 -7 -7 -7 -7 -7 -7 -7 -7 -7 -7 -7 -7 -7
-9 -10 -9 -10 -10 -8 -7 -7 -8 -8 -8 -8 -8 -8 -8 -8 -8 -8 -8 -7 -7 -6 -6 -5 -6 -6 -7 -7 -7 -7 -7 -7 -7 -7 -7 -7 -7 -7 -7 -7 -7 -7 -7 -7 -7 -7 -7 -7 -7 -7 -7 -7 -7 -7 -7 -7 -7 -7 -7 -6 -6 -7 -7
-9 -9 -10 -10 -10 -9 -9 -9 -9 -8 -8 -8 -8 -9 -8 -8 -8 -8 -8 -8 -7 -7 -6 -6 -6 -6 -7 -7 -7 -7 -7 -7 -7 -7 -7 -7 -7 -7 -7 -7 -7 -7 -7 -7 -7 -7 -7 -7 -7 -8 -7 -7 -7 -7 -7 -7 -7 -7 -6 -6 -6 -7 -7
-10 -9 -10 -10 -10 -9 -9 -10 -10 -10 -9 -8 -8 -9 -9 -8 -8 -8 -8 -8 -7 -7 -7 -7 -6 -6 -7 -7 -7 -7 -7 -7 -7 -7 -7 -7 -7 -7 -7 -7 -7 -7 -7 -7 -7 -7 -7 -7 -7 -8 -7 -7 -6 -6 -7 -7 -7 -7 -6 -6 -7 -7 -8
-10 -10 -10 -10 -10 -10 -10 -9 -9 -10 -9 -8 -8 -9 -9 -9 -8 -8 -8 -8 -8 -8 -8 -7 -7 -7 -8 -8 -8 -7 -7 -7 -7 -7 -7 -7 -7 -7 -7 -6 -7 -7 -7 -7 -7 -7 -7 -7 -8 -8 -8 -7 -7 -6 -6 -7 -7 -7 -7 -7 -7 -7 -8
-11 -10 -10 -10 -10 -10 -10 -10 -9 -10 -10 -9 -8 -9 -9 -9 -8 -8 -8 -8 -8 -8 -8 -8 -8 -7 -8 -8 -8 -7 -7 -7 -7 -7 -7 -7 -7 -7 -7 -7 -7 -7 -7 -7 -7 -7 -7 -7 -8 -8 -8 -8 -7 -6 -6 -7 -7 -7 -7 -7 -7 -8 -8
-11 -11 -11 -10 -10 -10 -10 -10 -10 -10 -10 -9 -9 -8 -9 -9 -9 -8 -8 -8 -8 -8 -8 -8 -8 -8 -8 -8 -8 -7 -7 -7 -7 -7 -7 -7 -7 -7 -7 -7 -7 -7 -7 -7 -8 -8 -7 -7 -8 -8 -8 -8 -8 -7 -7 -7 -7 -7 -7 -7 -8 -8 -8
-11 -11 -11 -10 -10 -10 -10 -10 -9 -10 -10 -9 -9 -9 -9 -9 -9 -9 -8 -8 -8 -8 -8 -8 -8 -8 -8 -8 -7 -7 -7 -7 -7 -7 -7 -7 -7 -7 -7 -7 -7 -7 -7 -8 -8 -8 -8 -8 -8 -8 -8 -8 -8 -8 -7 -7 -7 -7 -7 -8 -8 -8 -8
-11 -11 -11 -11 -10 -10 -10 -10 -10 -10 -10 -10 -9 -9 -9 -9 -9 -9 -9 -8 -8 -8 -8 -8 -8 -8 -8 -8 -8 -7 -7 -7 -7 -7 -7 -7 -7 -7 -7 -7 -7 -7 -7 -7 -8 -8 -8 -8 -8 -8 -8 -8 -8 -8 -8 -7 -7 -7 -7 -8 -8 -8 -9
-11 -11 -11 -11 -10 -10 -10 -10 -10 -10 -10 -10 -10 -9 -9 -9 -9 -9 -8 -8 -8 -9 -8 -8 -8 -8 -8 -8 -8 -8 -7 -7 -7 -7 -7 -7 -7 -7 -7 -7 -8 -8 -8 -8 -8 -8 -8 -8 -8 -8 -8 -8 -8 -8 -8 -8 -8 -7 -7 -8 -8 -9 -9
-12 -12 -11 -11 -10 -10 -11 -10 -10 -10 -10 -10 -10 -9 -9 -9 -9 -8 -8 -8 -8 -9 -9 -8 -8 -8 -8 -9 -8 -8 -8 -7 -7 -7 -7 -7 -7 -7 -7 -8 -8 -8 -8 -8 -8 -8 -8 -8 -8 -8 -9 -9 -9 -9 -8 -8 -8 -8 -8 -8 -8 -8 -8
-12 -12 -12 -11 -11 -11 -11 -10 -10 -10 -9 -10 -10 -10 -9 -9 -9 -9 -9 -8 -8 -8 -9 -9 -8 -8 -8 -8 -8 -8 -8 -8 -8 -8 -8 -8 -8 -8 -8 -8 -8 -8 -8 -8 -8 -8 -8 -8 -8 -8 -9 -9 -9 -9 -9 -8 -8 -8 -8 -8 -8 -8 -8
-13 -12 -12 -11 -11 -11 -11 -11 -10 -10 -10 -10 -10 -9 -9 -9 -9 -9 -9 -9 -9 -9 -9 -9 -9 -8 -8 -8 -8 -8 -8 -8 -8 -8 -8 -8 -8 -8 -8 -8 -8 -8 -8 -8 -8 -8 -8 -8 -8 -8 -8 -9 -9 -9 -9 -8 -8 -8 -8 -8 -8 -8 -8
-13 -13 -12 -11 -12 -11 -11 -11 -11 -10 -10 -10 -10 -10 -9 -9 -9 -9 -9 -9 -9 -9 -9 -9 -9 -9 -8 -8 -8 -8 -8 -8 -8 -8 -8 -8 -8 -8 -8 -8 -8 -8 -8 -8 -8 -8 -8 -8 -8 -8 -8 -8 -9 -9 -9 -9 -9 -8 -8 -8 -8 -8 -8
-14 -13 -12 -12 -12 -12 -11 -11 -11 -10 -10 -10 -10 -10 -10 -9 -9 -9 -9 -9 -9 -9 -9 -9 -9 -9 -9 -8 -8 -8 -8 -8 -8 -8 -8 -8 -8 -8 -8 -8 -8 -8 -8 -8 -8 -8 -8 -8 -8 -8 -8 -8 -8 -9 -9 -9 -9 -8 -8 -8 -8 -8 -8
-13 -13 -13 -13 -12 -12 -12 -11 -10 -10 -10 -10 -10 -10 -10 -10 -10 -9 -9 -9 -10 -10 -10 -9 -9 -9 -8 -8 -8 -8 -8 -8 -8 -8 -8 -8 -8 -8 -8 -8 -8 -8 -8 -8 -8 -8 -8 -8 -8 -8 -8 -8 -8 -8 -8 -8 -8 -9 -9 -8 -8 -9 -9
-13 -13 -13 -13 -13 -13 -12 -11 -10 -10 -10 -11 -10 -10 -10 -10 -10 -10 -10 -10 -10 -10 -10 -10 -9 -9 -9 -8 -8 -8 -9 -8 -8 -8 -8 -8 -8 -8 -8 -8 -8 -8 -8 -8 -8 -8 -8 -8 -8 -8 -8 -8 -9 -9 -8 -8 -8 -9 -9 -9 -9 -9 -9
-13 -13 -13 -13 -13 -13 -13 -12 -12 -11 -11 -11 -11 -11 -10 -10 -10 -10 -11 -11 -11 -11 -10 -10 -10 -10 -9 -9 -8 -8 -8 -8 -8 -8 -8 -8 -8 -8 -8 -7 -8 -8 -8 -8 -8 -8 -8 -8 -8 -8 -8 -8 -9 -9 -9 -9 -9 -9 -9 -9 -9 -9 -9
-14 -13 -13 -13 -13 -13 -13 -13 -12 -12 -12 -11 -11 -11 -11 -11 -11 -11 -11 -11 -11 -11 -11 -10 -10 -10 -9 -9 -9 -9 -8 -8 -8 -8 -8 -8 -8 -8 -8 -7 -7 -7 -7 -8 -8 -8 -8 -8 -8 -8 -8 -8 -8 -8 -8 -8 -8 -9 -9 -9 -9 -9 -8
Height
5835 5836 5839 5840 5839 5841 5843 5843 5841 5842 5847 5851 5851 5851 5853 5855 5852 5851 5853 5852 5853 5857 5859 5862 5865 5866 5868 5871 5873 5876 5877 5879 5880 5880 5881 5882 5884 5886 5888 5890 5892 5893 5893 5893 5894 5894 5895 5895 5896 5898 5899 5900 5900 5900 5900 5901 5902 5903 5903 5904 5905 5905 5907
5831 5834 5836 5835 5834 5836 5837 5837 5840 5844 5847 5847 5847 5847 5849 5850 5846 5845 5849 5850 5851 5853 5854 5858 5862 5863 5865 5868 5870 5873 5875 5876 5877 5878 5879 5880 5881 5883 5885 5886 5888 5890 5891 5891 5892 5892 5892 5893 5894 5895 5897 5897 5897 5897 5898 5899 5900 5900 5900 5901 5902 5902 5904
5827 5829 5829 5827 5828 5830 5833 5835 5839 5841 5840 5840 5841 5841 5841 5842 5842 5842 5845 5846 5847 5848 5850 5855 5859 5860 5862 5865 5868 5870 5871 5873 5874 5876 5877 5878 5879 5880 5881 5883 5884 5886 5888 5889 5889 5889 5890 5891 5892 5893 5893 5894 5894 5895 5896 5897 5897 5897 5897 5898 5899 5900 5901
5822 5822 5818 5819 5823 5826 5829 5831 5832 5834 5835 5836 5837 5836 5835 5837 5839 5840 5842 5841 5842 5845 5847 5851 5855 5857 5859 5862 5864 5866 5868 5870 5871 5873 5875 5875 5876 5877 5878 5880 5881 5883 5885 5886 5887 5887 5887 5888 5889 5890 5890 5891 5892 5893 5894 5895 5895 5895 5895 5896 5896 5897 5898
5813 5811 5810 5814 5821 5824 5824 5824 5825 5827 5830 5832 5833 5832 5832 5835 5836 5837 5838 5837 5838 5843 5845 5848 5851 5853 5855 5858 5861 5863 5865 5866 5868 5870 5872 5873 5874 5875 5876 5878 5880 5880 5881 5882 5883 5883 5884 5885 5886 5887 5887 5888 5890 5891 5892 5893 5893 5893 5893 5894 5894 5895 5896
5804 5805 5810 5814 5818 5819 5820 5821 5822 5824 5827 5828 5829 5828 5829 5831 5832 5832 5835 5833 5835 5841 5843 5845 5848 5850 5852 5856 5858 5860 5862 5864 5866 5868 5869 5871 5872 5873 5874 5876 5877 5878 5878 5879 5879 5880 5881 5882 5883 5884 5885 5886 5887 5889 5890 5890 5890 5891 5891 5892 5893 5894 5895
5799 5803 5808 5809 5811 5814 5815 5816 5819 5822 5823 5823 5824 5826 5827 5829 5829 5830 5832 5829 5830 5838 5841 5842 5845 5847 5849 5853 5855 5857 5859 5861 5863 5865 5866 5868 5869 5870 5872 5873 5874 5875 5876 5877 5877 5877 5878 5879 5880 5882 5883 5883 5885 5886 5887 5887 5888 5889 5889 5890 5891 5892 5893
5794 5798 5801 5802 5804 5806 5806 5807 5813 5816 5817 5819 5822 5824 5826 5827 5825 5827 5829 5824 5824 5834 5840 5840 5842 5844 5846 5849 5852 5854 5856 5857 5859 5861 5863 5865 5866 5867 5869 5870 5872 5873 5874 5874 5874 5875 5875 5876 5878 5879 5880 5881 5882 5883 5884 5885 5886 5887 5887 5888 5889 5890 5891
5784 5787 5788 5789 5792 5794 5795 5800 5807 5811 5813 5816 5817 5819 5820 5820 5820 5822 5823 5818 5819 5830 5838 5838 5839 5840 5842 5845 5848 5850 5852 5853 5855 5857 5859 5861 5863 5864 5866 5866 5868 5870 5870 5871 5872 5872 5873 5874 5875 5876 5877 5878 5879 5880 5881 5883 5884 5885 5885 5886 5887 5888 5889
5770 5773 5775 5778 5783 5788 5791 5796 5801 5805 5809 5811 5811 5813 5813 5812 5814 5818 5817 5814 5816 5826 5834 5835 5836 5837 5839 5842 5844 5846 5848 5850 5851 5854 5856 5858 5860 5862 5863 5863 5864 5865 5866 5867 5869 5869 5870 5871 5873 5874 5874 5875 5876 5877 5879 5880 5881 5882 5883 5884 5885 5886 5887
5763 5769 5775 5780 5783 5785 5786 5791 5795 5798 5803 5806 5807 5807 5804 5805 5811 5814 5814 5814 5816 5821 5828 5832 5833 5835 5836 5839 5841 5842 5844 5846 5848 5850 5852 5854 5856 5858 5860 5860 5861 5862 5862 5864 5865 5866 5868 5869 5870 5871 5872 5873 5874 5875 5877 5878 5878 5880 5881 5881 5882 5884 5885
5758 5767 5774 5779 5780 5780 5781 5785 5789 5792 5796 5800 5801 5799 5799 5804 5808 5809 5812 5816 5815 5817 5823 5827 5831 5833 5834 5837 5839 5839 5841 5843 5844 5846 5848 5850 5852 5855 5856 5858 5859 5859 5860 5861 5862 5863 5865 5866 5867 5868 5869 5870 5871 5873 5874 5875 5875 5877 5878 5879 5880 5881 5883
5750 5758 5765 5772 5775 5776 5778 5780 5783 5787 5790 5792 5794 5796 5799 5802 5802 5804 5810 5814 5814 5816 5820 5822 5826 5830 5832 5834 5836 5836 5838 5840 5841 5842 5844 5846 5848 5850 5852 5854 5855 5856 5858 5858 5859 5861 5862 5863 5864 5864 5866 5867 5868 5870 5871 5872 5873 5874 5875 5877 5878 5879 5880
5741 5747 5754 5763 5768 5770 5772 5775 5778 5781 5784 5786 5788 5792 5797 5799 5798 5801 5807 5810 5811 5814 5817 5820 5823 5826 5828 5830 5832 5833 5834 5836 5838 5839 5841 5842 5844 5846 5848 5850 5852 5853 5854 5855 5857 5858 5859 5860 5860 5862 5863 5864 5866 5867 5869 5870 5871 5872 5873 5874 5875 5877 5878
5734 5740 5747 5753 5759 5763 5766 5768 5772 5775 5777 5780 5783 5786 5790 5792 5794 5798 5801 5803 5806 5810 5815 5817 5819 5822 5823 5825 5827 5828 5830 5832 5834 5836 5838 5839 5841 5842 5844 5846 5848 5850 5851 5852 5854 5855 5856 5857 5858 5859 5861 5862 5863 5864 5865 5867 5868 5869 5870 5871 5872 5874 5876
5727 5736 5741 5744 5751 5758 5759 5761 5764 5768 5770 5774 5777 5779 5783 5786 5790 5794 5796 5796 5801 5808 5812 5814 5815 5817 5819 5820 5823 5824 5825 5827 5830 5832 5834 5836 5837 5838 5840 5842 5844 5846 5847 5849 5850 5851 5853 5854 5855 5857 5858 5859 5860 5861 5862 5864 5865 5866 5867 5868 5869 5871 5873
5723 5730 5733 5739 5747 5749 5746 5748 5756 5762 5766 5769 5772 5775 5779 5782 5785 5788 5790 5793 5799 5805 5808 5808 5809 5812 5815 5817 5819 5820 5821 5823 5825 5827 5830 5831 5832 5834 5836 5838 5840 5841 5843 5845 5847 5848 5850 5851 5853 5854 5856 5856 5857 5858 5859 5860 5861 5862 5863 5865 5866 5867 5869
5718 5723 5728 5733 5735 5732 5734 5744 5754 5759 5761 5765 5768 5771 5775 5778 5780 5781 5784 5790 5795 5799 5801 5803 5805 5808 5811 5814 5815 5815 5816 5818 5820 5823 5825 5826 5828 5830 5832 5835 5837 5838 5840 5842 5843 5845 5847 5848 5850 5851 5851 5852 5854 5855 5856 5857 5857 5858 5860 5861 5862 5863 5865
5711 5717 5722 5723 5721 5722 5733 5745 5751 5755 5758 5762 5765 5767 5769 5774 5776 5776 5778 5783 5787 5791 5794 5798 5801 5802 5804 5807 5810 5811 5812 5813 5814 5816 5819 5821 5823 5826 5828 5830 5833 5835 5837 5838 5839 5841 5843 5844 5845 5845 5846 5848 5850 5851 5852 5853 5853 5855 5857 5858 5859 5860 5861
5704 5710 5715 5716 5717 5724 5733 5738 5744 5750 5754 5757 5761 5761 5762 5766 5769 5770 5773 5776 5780 5785 5789 5792 5795 5796 5798 5801 5804 5806 5807 5809 5809 5811 5813 5814 5817 5819 5822 5825 5828 5831 5833 5834 5835 5837 5838 5839 5839 5840 5842 5843 5845 5847 5848 5849 5850 5851 5853 5855 5856 5856 5858
5697 5704 5709 5712 5717 5725 5729 5731 5737 5743 5746 5751 5756 5756 5757 5761 5764 5766 5768 5771 5775 5779 5783 5787 5790 5791 5793 5796 5798 5800 5803 5805 5806 5807 5808 5809 5811 5814 5818 5821 5823 5825 5828 5829 5830 5830 5832 5834 5834 5835 5837 5838 5840 5842 5843 5844 5846 5847 5849 5851 5852 5853 5855
5689 5697 5702 5708 5715 5721 5724 5725 5729 5735 5741 5747 5751 5753 5754 5758 5760 5762 5764 5767 5770 5773 5777 5782 5785 5787 5790 5792 5793 5795 5798 5801 5802 5803 5804 5804 5806 5810 5813 5816 5818 5820 5822 5824 5824 5825 5827 5829 5830 5831 5832 5833 5835 5837 5839 5840 5841 5843 5844 5847 5848 5850 5852
5682 5689 5696 5703 5709 5713 5713 5715 5720 5728 5734 5740 5745 5749 5749 5752 5755 5758 5760 5763 5766 5769 5772 5776 5780 5783 5785 5787 5789 5791 5793 5796 5798 5800 5801 5801 5803 5805 5808 5810 5812 5815 5817 5818 5819 5821 5821 5823 5825 5826 5827 5828 5830 5831 5833 5835 5836 5838 5840 5843 5844 5846 5849
5674 5682 5690 5697 5702 5704 5706 5709 5714 5720 5725 5731 5738 5740 5741 5745 5750 5752 5755 5759 5762 5764 5767 5771 5775 5779 5780 5782 5785 5787 5789 5791 5793 5794 5796 5798 5799 5802 5804 5806 5807 5808 5811 5812 5814 5816 5817 5818 5820 5822 5823 5824 5825 5826 5828 5829 5831 5834 5836 5838 5840 5842 5844
5670 5677 5684 5688 5693 5697 5701 5706 5710 5713 5717 5724 5729 5731 5735 5741 5744 5746 5750 5754 5757 5760 5764 5767 5771 5774 5775 5777 5780 5782 5785 5787 5788 5789 5791 5793 5795 5797 5799 5801 5803 5803 5805 5807 5808 5810 5811 5813 5815 5816 5818 5819 5820 5821 5823 5823 5825 5828 5831 5833 5835 5836 5837
5666 5670 5675 5680 5687 5692 5696 5700 5704 5708 5714 5720 5723 5726 5731 5736 5738 5742 5746 5749 5752 5756 5760 5763 5766 5769 5770 5773 5776 5778 5780 5782 5784 5785 5786 5788 5790 5791 5793 5795 5798 5799 5800 5801 5803 5803 5805 5807 5808 5809 5812 5814 5815 5816 5817 5818 5820 5823 5825 5826 5828 5830 5832
5660 5663 5667 5674 5681 5686 5690 5696 5701 5705 5711 5716 5719 5723 5727 5730 5734 5738 5741 5744 5747 5751 5755 5759 5762 5764 5766 5768 5771 5774 5776 5778 5779 5781 5782 5783 5784 5786 5788 5789 5791 5793 5794 5796 5797 5798 5799 5801 5803 5804 5806 5807 5809 5810 5811 5813 5815 5817 5818 5819 5821 5823 5824
5654 5656 5660 5667 5675 5680 5684 5691 5696 5700 5706 5711 5714 5719 5723 5726 5730 5733 5735 5739 5743 5746 5750 5754 5757 5759 5761 5763 5766 5769 5771 5773 5775 5776 5777 5777 5779 5781 5782 5783 5784 5786 5788 5790 5791 5793 5794 5795 5797 5799 5800 5800 5802 5803 5804 5807 5810 5811 5811 5812 5813 5814 5816
5649 5651 5656 5662 5670 5677 5681 5685 5690 5695 5700 5705 5708 5712 5718 5722 5726 5728 5731 5735 5738 5742 5746 5750 5753 5755 5757 5759 5761 5763 5765 5767 5769 5771 5771 5772 5773 5774 5776 5778 5779 5781 5782 5784 5785 5787 5789 5789 5791 5792 5794 5795 5796 5796 5797 5800 5803 5804 5804 5804 5804 5806 5809
5644 5648 5653 5659 5666 5673 5677 5680 5684 5689 5695 5700 5703 5707 5712 5717 5720 5723 5727 5731 5735 5738 5742 5745 5748 5751 5752 5754 5756 5758 5760 5762 5764 5765 5766 5767 5767 5768 5770 5772 5774 5775 5777 5779 5780 5782 5783 5784 5785 5785 5787 5788 5789 5789 5789 5791 5793 5794 5793 5792 5793 5798 5802
5639 5643 5648 5655 5661 5667 5670 5673 5678 5684 5690 5696 5700 5703 5706 5710 5714 5719 5723 5727 5731 5734 5738 5740 5743 5745 5746 5748 5750 5752 5754 5756 5757 5759 5761 5761 5762 5763 5764 5765 5767 5769 5771 5773 5775 5777 5778 5778 5779 5780 5780 5781 5781 5782 5782 5783 5784 5785 5784 5783 5785 5790 5793
5634 5639 5644 5650 5655 5660 5665 5670 5676 5682 5687 5692 5696 5700 5703 5706 5710 5714 5717 5720 5724 5728 5732 5734 5737 5739 5740 5742 5744 5746 5748 5749 5751 5753 5754 5755 5756 5757 5758 5760 5762 5763 5765 5767 5769 5771 5771 5772 5773 5774 5774 5774 5774 5775 5776 5776 5777 5779 5778 5778 5780 5783 5785
5632 5636 5639 5644 5650 5656 5662 5668 5674 5680 5684 5688 5692 5696 5701 5704 5707 5709 5712 5715 5718 5721 5725 5727 5730 5732 5734 5736 5738 5740 5741 5743 5744 5745 5746 5748 5750 5751 5753 5755 5756 5758 5759 5760 5762 5763 5764 5765 5766 5766 5767 5767 5767 5768 5769 5769 5770 5771 5772 5773 5774 5775 5776
5629 5632 5636 5640 5645 5652 5658 5665 5671 5676 5681 5685 5688 5692 5696 5700 5703 5705 5708 5710 5712 5715 5718 5721 5723 5725 5728 5730 5732 5733 5735 5736 5737 5739 5740 5742 5744 5746 5748 5749 5750 5752 5753 5754 5756 5756 5756 5757 5758 5758 5759 5759 5760 5761 5762 5762 5763 5763 5764 5765 5767 5768 5767
5626 5630 5635 5638 5641 5647 5653 5660 5667 5672 5677 5681 5685 5689 5692 5694 5696 5698 5701 5704 5707 5709 5712 5715 5717 5719 5722 5724 5726 5727 5728 5730 5731 5733 5734 5736 5738 5740 5742 5743 5744 5746 5747 5748 5748 5748 5748 5749 5750 5751 5751 5751 5752 5753 5754 5755 5755 5755 5755 5756 5758 5760 5759
5623 5628 5633 5636 5640 5645 5650 5655 5662 5667 5673 5677 5682 5687 5690 5690 5690 5692 5695 5699 5702 5704 5707 5710 5712 5714 5716 5718 5720 5722 5723 5724 5726 5727 5728 5730 5732 5734 5736 5737 5738 5739 5740 5741 5741 5741 5742 5742 5742 5743 5743 5743 5744 5744 5745 5745 5745 5745 5746 5747 5749 5750 5749
5620 5626 5632 5636 5640 5643 5647 5651 5657 5662 5668 5674 5678 5682 5685 5686 5687 5690 5694 5696 5698 5700 5702 5705 5707 5709 5711 5713 5715 5717 5718 5720 5721 5721 5723 5725 5727 5729 5730 5731 5732 5732 5733 5734 5734 5734 5734 5734 5734 5734 5734 5734 5734 5734 5734 5734 5734 5734 5735 5736 5737 5739 5739
Wind_Speed
31 29 25 25 28 29 28 30 33 33 30 31 36 38 38 41 46 42 41 46 46 42 40 35 33 32 31 31 29 26 23 20 21 23 23 23 24 23 23 24 24 23 23 22 22 23 22 22 22 21 20 20 21 23 24 23 21 20 19 19 20 21 21
31 28 27 29 31 30 31 32 30 26 26 29 35 39 39 42 44 40 38 43 45 42 39 35 32 32 32 33 31 28 24 21 21 21 21 22 24 25 24 26 27 26 25 23 22 23 23 22 22 21 21 21 23 24 25 24 22 20 20 20 21 22 22
31 29 31 34 35 34 33 32 29 28 30 31 34 38 39 40 40 34 31 37 41 39 36 32 30 31 32 31 29 26 23 21 20 19 19 20 22 24 26 27 28 28 25 23 23 23 23 22 21 21 22 23 24 25 25 23 22 22 22 21 21 22 23
33 34 39 41 38 36 34 34 34 34 34 34 34 36 37 36 36 31 27 32 33 30 30 31 30 32 34 30 26 24 23 22 20 16 15 17 16 19 24 26 27 27 24 23 24 25 24 23 21 21 22 23 24 25 23 23 22 22 22 22 22 22 23
39 43 46 43 38 37 38 39 40 39 38 37 36 37 38 36 36 34 30 30 26 21 23 27 29 33 34 29 23 23 24 23 20 16 16 16 14 14 19 23 26 26 24 24 26 27 26 24 22 21 21 20 21 22 21 21 22 22 22 22 22 22 22
45 46 44 41 39 39 39 40 40 39 38 37 37 39 39 37 38 36 33 32 27 19 17 21 25 30 31 29 25 22 22 22 20 18 18 19 17 15 15 19 23 25 24 24 26 26 24 23 22 21 20 19 19 18 18 20 21 21 22 22 22 22 21
46 44 42 41 41 40 40 40 38 36 37 39 38 38 38 37 38 36 35 35 28 19 17 18 22 28 29 27 26 24 23 24 23 20 20 20 20 19 16 16 19 22 22 22 23 24 23 22 22 21 19 19 18 18 18 19 20 21 22 23 22 21 20
44 44 43 44 44 42 43 43 40 38 39 39 38 37 37 38 39 38 38 36 27 18 16 16 20 27 27 24 26 27 26 26 25 23 21 21 22 23 21 19 19 21 21 22 23 25 25 24 23 20 17 17 18 19 19 18 18 20 21 22 22 21 19
49 48 48 50 50 49 49 46 42 41 41 40 40 39 39 41 41 40 40 39 34 23 16 15 19 24 25 23 25 28 29 29 29 26 24 23 23 23 24 23 21 21 22 23 25 27 27 24 23 21 17 15 16 18 17 17 18 19 20 21 22 21 19
58 57 56 56 53 52 51 49 46 44 42 42 43 42 44 46 45 43 42 43 41 31 20 19 21 22 25 24 25 28 30 33 33 28 24 24 23 23 24 24 23 22 23 24 25 28 28 25 24 23 19 16 16 17 18 18 19 19 20 21 21 21 19
60 57 54 51 51 52 52 52 50 48 44 43 43 45 48 49 46 44 43 43 42 36 28 24 21 22 26 26 25 28 29 31 33 31 26 25 24 23 24 23 23 24 24 23 25 28 28 26 25 24 21 19 18 19 20 22 22 20 20 22 22 22 20
59 54 48 45 48 52 52 51 51 50 47 44 45 49 50 48 46 45 42 40 40 38 32 28 22 21 25 28 28 30 30 29 30 31 30 28 25 23 24 24 24 24 24 23 26 28 28 28 28 27 25 23 22 21 22 25 25 23 22 23 22 22 21
60 55 50 47 48 51 52 51 50 50 49 47 47 48 47 46 47 46 41 38 38 37 34 31 26 19 21 30 32 31 32 31 30 30 32 30 26 24 26 26 26 25 24 25 26 28 29 31 32 31 29 26 25 24 25 26 28 26 24 23 22 21 21
64 59 53 50 49 51 53 53 51 50 50 49 49 46 43 43 44 43 40 38 38 37 35 32 26 18 18 28 35 34 34 34 33 32 32 31 31 29 28 29 28 25 25 26 25 26 30 33 35 34 31 28 27 27 26 26 28 28 27 25 23 22 20
64 62 55 50 50 53 54 54 53 52 51 49 49 47 43 43 44 41 39 39 38 37 37 35 30 26 23 26 32 36 37 36 36 36 35 34 36 35 32 30 29 26 26 26 26 27 31 35 37 36 32 30 29 29 28 27 27 28 29 28 27 25 23
62 60 53 48 49 51 55 58 56 54 54 51 50 49 46 44 44 41 40 42 40 35 34 36 35 34 32 28 30 33 36 37 37 39 38 38 40 40 38 34 30 29 29 28 28 29 33 36 38 36 33 32 32 32 31 29 29 30 31 31 31 29 27
61 59 55 49 46 48 57 63 60 54 53 53 51 49 45 42 41 42 44 44 39 33 33 36 38 39 38 33 32 34 36 37 39 39 39 38 39 42 44 40 35 34 34 34 33 33 33 35 36 35 35 35 34 34 32 32 32 33 33 32 32 30 29
62 60 57 51 48 55 62 64 61 56 52 52 50 46 41 38 38 42 45 41 37 36 37 37 38 41 41 38 36 37 37 37 39 40 41 39 38 41 44 43 40 39 38 38 39 37 36 36 36 37 38 37 35 34 34 35 36 36 35 33 32 30 29
63 60 58 53 53 60 64 58 57 59 55 48 44 41 37 34 35 41 43 40 38 39 40 38 37 42 46 44 42 41 41 41 41 41 42 42 40 41 41 41 41 41 42 42 42 41 39 39 39 40 39 38 36 35 36 38 40 39 37 34 32 30 29
68 64 60 57 55 57 59 54 52 57 58 51 44 41 40 39 39 41 41 39 39 40 41 40 38 40 46 49 48 46 46 46 45 44 43 44 44 43 42 41 40 41 42 42 42 42 41 40 40 41 41 41 40 40 41 41 41 40 38 35 33 31 31
73 69 63 58 53 52 53 53 52 52 55 57 52 45 44 45 44 44 43 41 40 39 39 39 39 39 41 45 49 51 50 49 49 47 46 46 46 45 44 43 43 43 44 43 44 45 44 42 40 41 44 44 44 43 43 42 40 39 38 36 34 33 33
74 73 67 57 50 50 53 55 56 50 48 56 58 49 45 47 47 47 46 43 41 40 38 37 39 40 38 38 43 48 50 51 52 52 51 50 49 47 46 46 47 47 47 48 49 50 47 43 40 42 45 46 45 45 45 43 41 38 37 36 36 35 35
72 73 70 60 50 49 55 59 58 49 44 54 60 53 47 49 49 50 48 44 42 41 40 39 38 38 38 38 40 43 45 46 48 52 55 55 54 52 49 49 50 50 50 50 50 50 49 45 42 42 45 46 45 46 47 47 45 41 39 39 38 37 36
71 71 69 66 57 52 56 60 57 50 48 56 63 60 54 52 52 52 50 48 45 44 43 42 39 38 39 40 40 42 43 43 44 46 50 54 56 55 53 53 54 55 54 53 52 51 51 49 46 44 46 48 47 48 49 48 46 44 44 43 42 41 40
69 69 68 69 64 56 56 58 55 50 50 58 66 67 60 55 53 53 52 51 50 48 46 44 41 40 41 41 40 41 42 43 44 45 45 47 49 52 54 57 59 60 59 57 55 54 53 52 51 49 48 49 50 50 51 49 46 46 46 45 45 45 45
65 69 70 72 67 59 57 59 56 51 50 55 65 69 66 60 56 54 53 53 53 53 50 48 45 42 42 42 41 41 41 42 43 44 45 46 47 47 50 53 56 60 62 61 60 59 58 57 57 55 53 53 53 54 54 52 49 47 47 47 46 46 47
59 67 72 76 72 62 59 61 60 56 52 52 58 66 70 67 61 57 55 54 54 54 53 50 49 46 43 43 42 41 41 41 42 43 44 46 47 46 47 48 49 52 57 60 63 64 63 62 61 59 58 57 58 59 60 58 54 50 49 48 46 46 48
51 59 68 79 79 68 63 64 64 62 59 55 53 59 66 69 66 63 60 58 55 54 52 50 51 50 46 44 44 44 43 43 43 44 45 46 46 45 44 45 47 49 52 55 58 60 62 62 61 59 59 59 59 60 62 62 59 57 56 54 51 51 51
46 50 58 73 80 72 65 65 67 66 65 62 57 55 58 62 64 63 63 61 58 55 53 51 50 51 49 47 47 47 48 47 47 46 46 46 46 46 44 44 45 48 52 55 56 56 57 59 60 60 60 59 59 61 62 62 61 59 58 59 58 55 53
44 45 51 63 72 70 64 65 70 69 67 66 64 60 56 56 57 57 57 56 56 55 55 54 52 52 52 52 52 52 52 52 51 49 48 48 48 49 49 48 47 48 51 55 58 58 57 57 58 58 59 59 60 63 64 65 65 65 65 66 65 61 56
45 43 48 54 61 64 60 61 69 73 70 67 66 64 61 57 55 55 53 51 50 51 53 55 55 55 54 55 56 56 55 54 53 53 53 53 53 54 54 54 54 53 53 53 55 57 60 61 60 60 62 63 64 66 67 67 66 62 61 62 63 63 63
50 44 47 46 49 57 58 57 64 71 72 69 66 65 64 61 58 57 57 54 52 51 51 52 54 55 55 56 56 57 57 54 54 56 56 56 57 58 59 59 59 59 58 57 54 52 56 59 60 61 64 66 67 68 69 70 67 62 57 56 57 61 66
57 48 46 42 42 52 57 57 62 68 70 70 68 64 61 60 59 59 59 57 56 54 52 52 53 53 54 55 54 55 57 56 54 56 57 57 57 57 58 58 58 58 59 59 56 53 53 55 56 57 59 61 63 65 66 67 69 69 67 65 63 63 66
62 52 46 41 40 48 56 60 65 68 68 68 67 63 59 56 56 56 56 56 56 54 51 51 52 52 52 53 52 53 55 57 56 56 56 56 56 55 54 53 53 53 53 54 54 53 54 55 56 57 58 58 60 61 62 64 66 69 70 68 65 64 66
67 57 49 42 38 44 54 62 65 68 69 68 65 61 57 56 55 55 54 50 48 48 46 46 48 50 51 52 51 51 53 55 55 55 55 54 54 54 53 52 52 51 50 50 51 53 55 56 56 57 59 59 60 60 61 63 66 68 69 69 66 65 66
68 64 53 45 41 44 52 59 61 62 64 63 59 53 47 46 49 54 54 49 45 43 43 43 44 45 48 51 52 52 52 53 54 54 54 54 53 52 51 51 50 50 49 49 50 51 52 54 55 57 58 59 61 61 62 63 65 66 68 68 67 67 68
60 64 57 49 46 49 52 56 57 57 54 52 51 45 37 33 36 40 43 44 44 43 43 45 46 45 46 49 51 52 52 52 52 53 53 52 51 50 49 49 48 48 48 48 49 49 50 52 53 53 55 58 60 62 62 63 64 65 64 64 65 67 69
Wind_Direction
244 243 239 235 237 237 235 232 232 235 233 230 232 233 232 231 235 241 240 239 243 245 245 245 241 242 245 246 249 252 253 251 251 255 259 258 252 242 238 240 240 239 243 246 248 249 250 253 255 253 251 255 259 259 259 260 262 265 265 261 256 255 255
245 244 239 234 235 234 235 237 237 238 236 231 230 232 231 230 236 244 244 242 245 247 246 244 242 240 237 236 241 245 247 249 250 256 261 261 256 249 245 245 244 242 240 242 246 248 250 253 255 256 254 255 257 259 262 265 268 270 269 263 258 255 254
240 238 235 231 230 230 232 238 239 234 232 231 229 232 233 231 235 244 246 243 244 247 249 245 240 237 233 233 238 241 243 249 253 259 267 270 262 250 244 245 245 243 240 242 245 245 247 249 251 254 256 255 256 258 263 268 271 273 274 270 263 258 255
232 232 233 230 229 230 230 231 232 231 232 233 234 239 242 238 238 243 248 248 246 246 250 247 239 235 235 234 237 243 248 252 254 257 265 273 269 252 243 242 242 241 241 241 240 239 241 244 248 254 256 254 253 256 262 268 273 275 276 273 265 259 256
230 231 235 236 235 235 234 233 234 233 232 231 233 240 244 242 242 244 246 251 254 251 251 248 241 237 239 238 238 245 252 252 251 254 262 268 269 258 247 241 238 237 238 236 234 236 240 244 249 254 256 254 252 255 261 266 272 274 273 270 265 260 257
234 235 237 241 241 239 239 240 242 242 241 238 237 241 242 243 246 248 251 259 264 258 251 248 242 240 241 238 234 239 245 246 246 250 258 263 266 263 254 247 243 240 236 232 232 237 242 247 252 254 254 253 252 256 261 264 268 270 269 268 264 260 258
236 237 236 237 238 238 238 238 238 240 242 242 243 245 246 248 253 255 258 264 266 254 246 244 237 238 240 233 227 230 237 242 245 248 251 258 264 266 258 249 247 246 242 238 237 241 244 246 249 249 246 246 250 254 256 260 264 267 267 266 264 262 260
232 233 234 234 232 230 231 231 228 229 235 239 241 246 249 251 254 256 257 262 263 248 240 241 233 234 237 231 225 229 235 241 247 249 250 254 260 265 264 255 244 240 241 243 244 243 243 244 245 246 243 244 248 249 250 256 261 263 264 265 266 265 261
227 225 225 228 228 226 227 229 226 225 228 233 236 238 242 245 247 250 252 257 260 252 239 237 233 228 227 221 218 224 232 238 242 246 249 252 256 261 265 263 255 246 243 247 247 243 242 244 245 245 245 247 250 249 247 252 256 258 261 265 268 267 260
227 226 225 227 228 230 232 234 233 228 224 226 233 235 237 240 242 243 247 254 260 258 245 235 232 226 222 216 209 215 224 231 235 240 248 251 253 259 263 266 267 262 254 253 249 241 239 243 246 247 248 251 254 251 245 244 248 252 258 263 265 264 259
230 230 230 230 231 233 237 238 238 235 228 223 228 234 239 241 242 243 247 253 259 261 255 245 234 224 223 218 209 211 218 225 230 233 237 241 245 252 259 262 264 259 252 251 248 239 236 241 246 249 251 252 255 255 250 247 248 250 254 259 261 261 260
233 231 227 225 228 233 237 238 239 241 237 229 227 233 241 244 245 247 249 251 256 261 260 255 245 229 219 213 209 213 216 222 231 235 234 233 235 245 254 258 259 253 247 246 243 236 233 237 243 248 250 250 252 255 254 252 252 252 252 255 259 261 264
233 233 228 221 221 228 232 235 238 240 241 239 236 237 240 244 247 251 252 250 253 256 256 255 252 242 219 209 210 216 218 220 229 237 239 237 234 239 248 253 255 253 249 247 242 237 234 235 239 245 248 247 248 252 256 257 257 257 256 256 258 261 267
232 232 231 224 217 220 225 229 233 237 239 241 243 243 240 240 245 250 250 247 248 249 248 248 245 234 212 205 208 215 220 223 227 233 238 241 240 238 239 244 248 249 248 248 247 243 239 237 239 244 248 249 250 253 258 260 260 259 259 259 260 262 268
232 231 231 228 220 216 218 223 227 233 236 237 240 243 241 238 240 243 244 244 242 241 242 244 242 235 222 208 206 214 221 225 228 230 232 237 242 241 238 238 240 241 242 246 251 248 241 239 242 245 247 249 251 253 255 257 257 258 260 261 261 263 266
229 228 227 228 224 217 213 216 221 227 231 233 235 239 241 242 241 239 240 241 240 238 237 241 244 243 237 221 207 213 222 225 226 227 229 234 239 242 242 239 233 230 233 239 247 248 241 239 242 245 248 251 253 254 255 256 257 259 262 263 262 263 264
226 226 223 223 225 221 216 214 215 220 226 231 233 236 238 243 245 242 240 241 242 238 235 237 240 241 240 230 215 215 224 228 227 225 224 230 237 239 241 242 236 231 231 234 240 243 241 240 244 249 253 255 255 257 260 262 264 264 265 265 264 265 264
221 222 221 217 218 223 224 218 211 212 221 227 229 232 235 240 246 249 247 243 239 235 232 234 237 236 233 226 219 218 221 226 230 229 225 228 235 238 240 242 240 235 233 233 235 238 240 242 245 248 249 251 253 256 261 264 266 267 267 267 267 266 265
216 217 217 214 214 223 230 225 211 209 215 220 222 227 230 232 240 247 247 241 234 231 230 229 230 231 228 223 220 221 221 224 227 229 228 227 231 235 240 243 243 238 235 235 235 236 239 241 243 245 247 251 253 256 260 263 265 267 266 265 265 264 264
212 213 215 216 218 224 230 229 219 211 211 213 216 220 221 222 228 235 239 238 232 230 230 227 225 227 227 224 223 223 223 224 226 228 230 230 230 232 234 239 243 242 239 237 236 236 237 240 245 249 251 254 256 257 259 260 263 265 263 259 259 260 260
212 213 215 217 220 223 227 232 230 220 211 211 214 216 217 220 224 228 232 235 234 232 230 226 224 226 227 226 226 226 225 224 227 230 234 237 237 236 235 235 238 241 241 238 237 238 238 239 243 248 251 253 254 256 256 257 260 263 259 255 255 256 257
211 212 213 213 214 218 224 230 233 229 216 210 213 215 215 218 223 227 229 231 232 233 231 227 224 224 225 227 229 231 230 228 229 232 236 240 242 242 241 238 236 238 241 241 243 246 246 242 241 245 250 253 254 254 252 253 257 260 256 253 254 254 253
209 210 211 210 208 211 218 224 227 226 216 210 211 212 212 213 219 225 226 224 225 229 229 229 226 220 219 224 230 233 234 234 234 234 236 239 241 243 245 246 243 242 243 246 248 249 249 246 242 244 248 251 254 256 253 252 255 256 254 252 253 251 249
206 207 208 207 206 207 213 219 222 220 213 207 207 209 211 211 214 220 221 220 220 223 226 229 229 220 215 220 227 232 236 238 238 237 236 238 240 241 242 245 248 249 248 249 251 250 248 245 241 241 246 250 253 258 260 258 257 256 255 255 253 251 248
204 204 204 204 206 207 209 213 216 216 211 206 205 208 211 211 212 215 217 218 220 221 224 228 229 224 219 220 223 230 235 238 238 238 239 240 241 241 240 240 244 248 249 250 251 251 249 245 240 239 243 248 252 257 261 260 257 257 258 256 253 251 249
200 202 203 203 205 206 207 208 208 209 208 204 205 208 210 210 211 213 214 218 222 223 224 227 228 226 223 222 224 229 234 236 239 241 243 244 244 244 243 241 241 243 246 249 250 251 252 251 248 246 246 247 250 253 255 255 254 254 255 253 251 251 251
197 198 201 204 205 206 206 206 207 208 206 203 205 209 211 211 212 213 214 218 222 224 225 226 227 227 226 225 226 231 234 236 241 245 248 248 247 246 247 246 244 242 242 244 247 250 252 253 253 252 251 250 250 251 252 252 251 251 250 249 249 251 249
193 194 198 203 206 207 206 206 207 208 207 204 205 209 211 212 213 216 218 219 220 223 225 225 224 225 227 227 228 233 238 240 243 246 248 250 250 248 246 246 246 244 242 242 244 246 249 252 252 252 252 252 253 254 254 254 252 252 252 251 251 251 249
191 190 196 202 206 208 207 205 206 209 209 208 207 207 210 214 216 219 222 222 221 223 226 226 225 225 227 228 231 235 239 243 246 247 248 250 251 251 250 248 247 246 244 244 245 246 248 251 252 251 250 251 253 255 255 255 253 252 252 253 254 254 250
190 188 193 199 203 206 205 204 205 208 210 211 212 211 210 214 218 221 223 223 223 225 227 228 230 230 230 231 234 238 241 244 246 246 247 250 251 251 252 253 252 250 248 246 247 248 249 251 251 251 250 250 251 252 254 254 253 251 250 250 252 254 254
192 187 190 196 201 203 203 202 203 207 210 212 215 216 214 216 220 223 223 224 227 230 230 231 233 234 234 234 236 239 242 244 245 244 245 247 248 249 251 254 255 256 254 251 249 249 249 250 252 252 252 252 252 253 254 254 253 251 249 248 250 254 257
201 190 186 192 200 203 204 203 203 206 210 213 216 219 221 223 225 226 228 233 237 236 234 233 233 234 235 236 238 240 242 243 244 243 243 244 245 246 248 250 252 254 255 254 254 251 249 249 250 252 253 253 253 254 255 256 255 254 254 258 260 261 261
211 200 189 188 195 201 205 206 205 207 212 215 217 220 225 228 230 229 232 237 240 239 236 234 234 234 235 238 240 242 241 242 243 243 243 243 243 243 245 247 249 250 251 252 254 255 253 251 251 252 253 254 255 255 256 257 257 256 258 262 266 267 265
214 211 203 199 197 199 203 205 206 210 214 216 218 221 225 231 234 233 234 236 238 239 239 237 235 234 235 237 240 241 240 241 243 244 244 244 244 244 246 248 249 250 250 251 254 256 257 256 255 255 256 256 257 258 258 258 258 258 259 260 262 265 266
216 215 212 208 203 200 201 203 206 211 216 218 221 224 229 235 237 233 231 231 233 234 235 234 233 233 234 235 238 239 239 240 242 244 245 245 246 247 248 250 252 252 253 254 256 257 259 260 260 259 259 258 258 259 259 259 258 258 258 259 260 263 263
217 215 212 207 203 201 202 203 206 211 215 218 220 223 228 235 235 231 228 230 232 234 234 235 236 235 235 236 237 239 240 241 243 244 246 247 248 249 251 252 254 255 256 257 259 260 262 264 264 264 262 261 260 259 258 258 257 257 258 257 257 258 259
216 217 215 210 204 203 204 205 207 211 214 215 215 219 227 232 230 230 232 235 237 238 238 238 239 238 239 239 239 240 242 243 244 245 247 248 249 251 253 254 256 256 257 258 261 264 266 267 267 266 265 263 262 260 259 258 256 255 256 256 255 255 257